[[{"header":{"parameterUnit":"m.s-1","parameterCategory":2,"la1":30.2991,"la2":30.254,"lo1":-89.0895,"lo2":-89.0444,"dy":0.0017,"dx":0.0017,"nx":28,"ny":28,"refTime":"2023-09-27T03:00:00:Z","depth":"0","parameterNumber":2,"parameterNumberName":"U-component_of_CURRENTS"},"data":[0,0,0,0,0,0,0,0,0,0,0,0,0,0,0,0,0,0,0,0,0,0,0,0,0,0,0,0,0,0,0,0,0,0,0,0,0,0,0,0,0,0,0,0,0,0,0,0,0,0,0,0,0,0,0,0,0,0,-0.2003,-0.2003,0,-0.2004,-0.2004,-0.2004,-0.1989,-0.1989,-0.1988,-0.1988,-0.1933,-0.1932,-0.1931,0,0,0,0,0,0,0,0,0,0,0,0,0,-0.1928,-0.193,-0.2003,-0.2003,-0.2003,-0.2004,-0.2004,-0.2004,-0.1989,-0.1988,-0.1988,-0.1988,-0.1934,-0.1932,-0.1931,0,0,0,0,0,0,0,0,0,0,0,0,0,-0.1946,-0.193,-0.2003,-0.1998,-0.1998,-0.2004,-0.2004,-0.2003,-0.1989,-0.1988,-0.1988,-0.1988,-0.1934,-0.1933,-0.1931,-0.1923,0,0,-0.1925,-0.1924,0,0,0,0,0,0,0,0,-0.1945,-0.1948,-0.1998,-0.1998,-0.1998,-0.1998,-0.1957,-0.1975,-0.1989,-0.1989,-0.1988,-0.1988,-0.1952,-0.1949,-0.1946,-0.1921,-0.1918,-0.1924,-0.1923,-0.1922,-0.1922,0,0,0,0,0,0,0,-0.1944,-0.1948,-0.2,-0.1999,-0.1999,-0.1976,-0.1978,-0.196,-0.1969,-0.1989,-0.1989,-0.1993,-0.1951,-0.1948,-0.1945,-0.1918,-0.1924,-0.1923,-0.1921,-0.1921,-0.1861,-0.186,0,0,0,0,0,0,-0.1953,-0.1947,-0.2001,-0.2001,-0.1973,-0.1978,-0.198,-0.1996,-0.197,-0.1967,-0.1994,-0.1993,-0.1952,-0.1947,-0.1943,-0.1936,-0.1922,-0.1921,-0.1919,-0.1861,-0.186,-0.186,0,0,0,0,0,0,-0.1951,-0.1958,-0.2001,-0.1975,-0.1979,-0.198,-0.1998,-0.1997,-0.1991,-0.1975,-0.197,-0.199,-0.1951,-0.1945,-0.1921,-0.1934,-0.192,-0.1918,-0.1861,-0.1861,-0.186,-0.192,0,0,0,0,0,0,-0.1949,-0.1958,-0.1965,-0.1976,-0.1981,-0.1999,-0.1998,-0.1997,-0.1996,-0.1995,-0.197,-0.1965,-0.1951,-0.1924,-0.1919,-0.1931,-0.1916,-0.1862,-0.1861,-0.186,-0.1919,-0.1922,-0.1924,0,0,0,0,0,-0.1947,-0.1955,-0.1965,-0.1971,-0.1994,-0.1999,-0.1998,-0.1995,-0.1996,-0.199,-0.1974,-0.1965,-0.1915,-0.1922,-0.1916,-0.1928,-0.1862,-0.1861,-0.186,-0.1917,-0.1921,-0.1924,0,0,0,0,0,0,-0.1917,-0.1955,-0.1966,-0.1984,-0.1991,-0.1997,-0.1994,-0.1996,-0.198,-0.1979,-0.196,-0.1953,-0.1936,-0.1917,-0.1925,-0.1904,-0.1887,-0.1885,-0.1933,-0.1936,-0.1938,-0.196,-0.1915,0,0,0,0,0,-0.1919,-0.194,-0.1963,-0.1975,-0.1983,-0.199,-0.199,-0.1993,-0.1986,-0.198,-0.1964,-0.1944,-0.1928,-0.192,-0.1897,-0.1888,-0.1899,-0.1889,-0.1892,-0.1894,-0.1905,-0.1942,-0.195,-0.1857,-0.1857,-0.1857,0,0,-0.191,-0.1934,-0.1944,-0.1971,-0.1979,-0.1988,-0.1988,-0.1994,-0.2004,-0.1976,-0.1972,-0.195,-0.1924,-0.1915,-0.1906,-0.1902,-0.1923,-0.1893,-0.1896,-0.1906,-0.1942,-0.1951,-0.196,-0.1856,-0.1856,-0.1856,0,0,-0.1906,-0.1927,-0.1946,-0.1956,-0.1977,-0.1981,-0.1984,-0.1994,-0.2,-0.1994,-0.1979,-0.1968,-0.1935,-0.1933,-0.1925,-0.1927,-0.1933,-0.1911,-0.1952,-0.1987,-0.1996,-0.2004,-0.2028,-0.2038,-0.1919,-0.1919,-0.1919,0,-0.1893,-0.1928,-0.1946,-0.1965,-0.1979,-0.1981,-0.1999,-0.2002,-0.2,-0.2018,-0.1995,-0.1979,-0.195,-0.1967,-0.196,-0.1938,-0.1954,-0.1947,-0.1995,-0.2003,-0.2011,-0.2034,-0.2044,-0.1922,-0.1921,-0.1921,-0.1921,0,-0.1906,-0.1932,-0.194,-0.1974,-0.1985,-0.1997,-0.2017,-0.2027,-0.2031,-0.2041,-0.2054,-0.2024,-0.2019,-0.2006,-0.198,-0.2017,-0.2009,-0.1995,-0.1998,-0.2025,-0.2046,-0.2055,-0.1926,-0.1925,-0.1924,-0.1923,0,0,-0.188,-0.1942,-0.1942,-0.1977,-0.1997,-0.2015,-0.2038,-0.2072,-0.2115,-0.2095,-0.2148,-0.2105,-0.2097,-0.2087,-0.2064,-0.2089,-0.214,-0.2063,-0.2064,-0.2107,-0.2219,-0.2174,-0.218,-0.2143,-0.2144,-0.2146,-0.2213,0,-0.1885,-0.1939,-0.1961,-0.2001,-0.2036,-0.2056,-0.2089,-0.212,-0.2144,-0.2188,-0.2179,-0.2196,-0.2127,-0.2135,-0.2146,-0.214,-0.2168,-0.2123,-0.2168,-0.217,-0.2144,-0.2191,-0.2053,-0.2097,-0.2222,-0.2224,-0.2225,0,-0.1883,-0.1933,-0.1983,-0.2065,-0.2082,-0.2094,-0.2175,-0.2205,-0.2262,-0.2289,-0.2304,-0.2294,-0.2302,-0.2253,-0.2267,-0.2243,-0.2233,-0.2232,-0.2234,-0.2181,-0.2144,-0.2088,-0.211,-0.2062,-0.224,-0.2239,-0.2237,0,-0.1878,-0.1942,-0.1993,-0.2013,-0.2096,-0.2126,-0.2161,-0.2228,-0.2281,-0.2349,-0.2389,-0.24,-0.2402,-0.24,-0.2349,-0.2322,-0.2385,-0.235,-0.2309,-0.2305,-0.219,-0.2173,-0.2187,-0.2389,-0.2389,-0.2389,-0.2389,0,-0.1882,-0.192,-0.1994,-0.2027,-0.2093,-0.2143,-0.222,-0.2268,-0.2352,-0.2407,-0.2426,-0.2458,-0.244,-0.2452,-0.2412,-0.2384,-0.243,-0.2333,-0.2329,-0.2203,-0.2187,-0.214,-0.214,-0.2391,-0.2391,-0.239,-0.239,0,-0.1863,-0.1914,-0.1976,-0.2066,-0.2093,-0.2134,-0.2233,-0.2286,-0.2373,-0.2448,-0.2466,-0.2512,-0.2514,-0.2508,-0.2513,-0.2455,-0.2395,-0.2432,-0.2279,-0.2255,-0.2149,-0.2157,-0.2184,-0.2132,-0.2401,-0.24,-0.24,0,-0.1858,-0.1889,-0.1983,-0.201,-0.2041,-0.2115,-0.216,-0.2271,-0.2324,-0.2455,-0.2474,-0.2527,-0.2513,-0.2523,-0.246,-0.2429,-0.2386,-0.229,-0.2207,-0.2144,-0.2151,-0.2147,-0.2101,-0.2077,-0.2074,-0.2071,-0.2069,0,-0.1835,-0.1859,-0.1909,-0.1965,-0.2006,-0.2078,-0.2145,-0.2204,-0.2322,-0.2379,-0.2432,-0.2445,-0.2461,-0.235,-0.2333,-0.2286,-0.2204,-0.2237,-0.2211,-0.1941,-0.1899,-0.1845,-0.2036,-0.2047,-0.2049,-0.2051,-0.2052,-0.2053,-0.1779,-0.1804,-0.1848,-0.1884,-0.1935,-0.1985,-0.1985,-0.2072,-0.2133,-0.2157,-0.2276,-0.223,-0.2212,-0.215,-0.2126,-0.2,-0.207,-0.1901,-0.1931,-0.1946,-0.185,-0.1995,-0.1976,-0.1978,-0.1979,-0.1981,-0.1982,0,-0.1694,-0.1723,-0.1758,-0.1776,-0.1749,-0.1838,-0.1914,-0.188,-0.1863,-0.1937,-0.1933,-0.1926,-0.1829,-0.1831,-0.175,-0.1687,-0.1645,-0.1657,-0.1601,-0.158,-0.1725,-0.166,-0.1522,-0.1522,-0.1522,-0.1522,-0.1522,-0.1522,-0.1648,-0.1646,-0.1666,-0.1569,-0.1562,-0.1499,-0.1509,-0.1501,-0.1523,-0.149,-0.1484,-0.1562,-0.1607,-0.167,-0.156,-0.1494,-0.1452,-0.1416,-0.1482,-0.1551,-0.1574,-0.1597,-0.1535,-0.1372,-0.1372,-0.1235,-0.1234,-0.1234]},{"header":{"parameterUnit":"m.s-1","parameterCategory":2,"la1":30.2991,"la2":30.254,"lo1":-89.0895,"lo2":-89.0444,"dy":0.0017,"dx":0.0017,"nx":28,"ny":28,"refTime":"2023-09-27T03:00:00:Z","depth":"0","parameterNumber":3,"parameterNumberName":"V-component_of_CURRENTS"},"data":[0,0,0,0,0,0,0,0,0,0,0,0,0,0,0,0,0,0,0,0,0,0,0,0,0,0,0,0,0,0,0,0,0,0,0,0,0,0,0,0,0,0,0,0,0,0,0,0,0,0,0,0,0,0,0,0,0,0,0.0085,0.0086,0,0.0146,0.0147,0.0148,0.0173,0.0173,0.0172,0.0172,0.0227,0.0228,0.023,0,0,0,0,0,0,0,0,0,0,0,0,0,0.0015,0.0016,0.0085,0.0086,0.0086,0.0146,0.0147,0.0148,0.0173,0.0173,0.0172,0.0172,0.0226,0.0228,0.023,0,0,0,0,0,0,0,0,0,0,0,0,0,0.0058,0.0016,0.0085,0.0106,0.0108,0.0146,0.0147,0.0148,0.0173,0.0173,0.0172,0.0172,0.0226,0.0228,0.023,0.0251,0,0,0.0238,0.0239,0,0,0,0,0,0,0,0,0.0055,0.0061,0.0102,0.0104,0.0107,0.0151,0.0142,0.0182,0.0173,0.0149,0.0172,0.0172,0.0201,0.0205,0.0218,0.0254,0.0256,0.0238,0.024,0.0241,0.0241,0,0,0,0,0,0,0,0.0052,0.0058,0.011,0.0103,0.0106,0.0121,0.0126,0.015,0.0176,0.0151,0.0153,0.0159,0.0202,0.0216,0.022,0.0257,0.0238,0.024,0.0242,0.0243,0.0268,0.0267,0,0,0,0,0,0,0.0043,0.0055,0.0108,0.0112,0.0079,0.0122,0.0128,0.0138,0.0176,0.0181,0.0159,0.016,0.0212,0.0217,0.0222,0.0202,0.0241,0.0243,0.0244,0.0269,0.0268,0.0267,0,0,0,0,0,0,0.0041,0.0047,0.0105,0.0084,0.0092,0.0123,0.0134,0.0139,0.015,0.0182,0.0187,0.0164,0.0212,0.0218,0.0232,0.0206,0.0244,0.0246,0.027,0.0268,0.0267,0.0192,0,0,0,0,0,0,0.0039,0.0046,0.0048,0.0084,0.0093,0.0115,0.0134,0.014,0.0154,0.0156,0.0188,0.0193,0.0212,0.0228,0.0234,0.021,0.0248,0.0271,0.0269,0.0268,0.0196,0.0189,0.0183,0,0,0,0,0,0.0036,0.0034,0.0048,0.0055,0.0096,0.0114,0.012,0.0142,0.0154,0.0152,0.0174,0.0192,0.0223,0.023,0.0237,0.0213,0.0271,0.027,0.0268,0.0199,0.019,0.0183,0,0,0,0,0,0,0.0002,0.0037,0.0054,0.0062,0.0082,0.0118,0.0117,0.0139,0.0158,0.0157,0.0191,0.0197,0.0196,0.022,0.0227,0.0216,0.0247,0.0246,0.0191,0.0184,0.0177,0.016,0.025,0,0,0,0,0,-0.0003,0.0004,0.004,0.0044,0.0052,0.0087,0.0098,0.0114,0.0136,0.0144,0.0169,0.0188,0.0196,0.0202,0.0217,0.022,0.0233,0.0207,0.02,0.0194,0.0185,0.0186,0.0178,0.0261,0.0261,0.0261,0,0,-0.0015,0.0004,0.0009,0.0037,0.0055,0.0052,0.0092,0.0101,0.0091,0.0147,0.0141,0.0169,0.0192,0.0186,0.0187,0.0202,0.0176,0.0192,0.0187,0.0181,0.0183,0.0175,0.0167,0.026,0.026,0.026,0,0,-0.005,-0.002,-0.0032,-0.0018,0.0003,0.0025,0.0025,0.0059,0.0064,0.0075,0.0099,0.0112,0.014,0.0141,0.0147,0.0117,0.0141,0.0121,0.0073,0.0073,0.0066,0.006,0.0057,0.0051,0.0117,0.0116,0.0116,0,-0.0067,-0.0075,-0.0034,-0.0046,-0.0047,0.0007,-0.0015,0.0001,0.0033,0.003,0.006,0.0088,0.0113,0.0091,0.008,0.01,0.0106,0.01,0.0063,0.0058,0.0053,0.0051,0.0046,0.0113,0.0113,0.0113,0.0114,0,-0.0117,-0.0121,-0.0129,-0.0127,-0.0121,-0.0129,-0.0103,-0.01,-0.0074,-0.0051,-0.0051,-0.0007,0.0008,0.0016,0.0041,0.0011,0.0028,0.0055,0.0081,0.004,0.0041,0.0037,0.0107,0.0109,0.011,0.0111,0,0,-0.0163,-0.0164,-0.0169,-0.0186,-0.0166,-0.017,-0.0189,-0.0191,-0.0209,-0.0161,-0.018,-0.015,-0.0107,-0.0098,-0.0064,-0.0059,-0.0084,-0.002,-0.0018,-0.0029,-0.0089,-0.0014,-0.0011,-0.0062,-0.0063,-0.0064,-0.0078,0,-0.0218,-0.0266,-0.0249,-0.0295,-0.0318,-0.0284,-0.0306,-0.0298,-0.0277,-0.0276,-0.0227,-0.0219,-0.0158,-0.0148,-0.0135,-0.0091,-0.0097,-0.0083,-0.0043,-0.0042,0.0025,-0.0014,0.0045,0.0043,-0.0082,-0.0083,-0.0083,0,-0.0282,-0.0304,-0.0362,-0.0387,-0.0394,-0.0406,-0.0434,-0.0444,-0.0426,-0.0406,-0.0378,-0.0329,-0.0308,-0.0245,-0.0203,-0.0195,-0.0157,-0.012,-0.0119,-0.0025,0.0026,0.0067,0.0041,0.0151,-0.0089,-0.0089,-0.0088,0,-0.0354,-0.0388,-0.044,-0.0447,-0.046,-0.0482,-0.0484,-0.0481,-0.0502,-0.048,-0.0484,-0.0435,-0.0412,-0.0353,-0.025,-0.0237,-0.0197,-0.017,-0.0075,-0.007,0.0001,0.0015,0.0084,-0.0163,-0.0163,-0.0163,-0.0163,0,-0.043,-0.0469,-0.0473,-0.0502,-0.0558,-0.054,-0.0591,-0.0588,-0.0588,-0.0622,-0.0547,-0.0559,-0.0437,-0.0386,-0.0295,-0.0186,-0.0232,-0.0095,-0.007,-0.0023,-0.0011,0.0107,0.0143,-0.0164,-0.0164,-0.0164,-0.0163,0,-0.0505,-0.0509,-0.0564,-0.0586,-0.0593,-0.0629,-0.0652,-0.069,-0.0676,-0.072,-0.0717,-0.0659,-0.0578,-0.0453,-0.0352,-0.0246,-0.0074,-0.0105,-0.0052,-0.0019,0.019,0.0218,0.0302,0.0347,-0.0013,-0.0011,-0.0009,0,-0.0548,-0.0585,-0.0626,-0.0656,-0.0663,-0.0702,-0.0735,-0.0732,-0.0771,-0.0787,-0.0818,-0.0749,-0.0693,-0.049,-0.0277,-0.0099,-0.0029,0.0045,0.0087,0.0204,0.0252,0.0277,0.031,0.0139,0.0141,0.0143,0.0145,0,-0.0624,-0.0633,-0.0673,-0.0732,-0.077,-0.0827,-0.0867,-0.0911,-0.0923,-0.0938,-0.0947,-0.0898,-0.0677,-0.0419,-0.0154,-0.0041,0.0145,0.0095,0.0195,0.036,0.0408,0.0464,0.014,0.0164,0.0162,0.0161,0.016,0.0159,-0.0668,-0.0709,-0.0752,-0.0804,-0.0855,-0.0932,-0.097,-0.1016,-0.106,-0.1051,-0.1019,-0.0879,-0.0512,-0.0108,0.0017,0.0348,0.0287,0.0446,0.0462,0.0469,0.0549,0.0273,0.0348,0.0347,0.0346,0.0346,0.0345,0,-0.0725,-0.076,-0.0818,-0.0879,-0.0933,-0.0953,-0.104,-0.1061,-0.1096,-0.1032,-0.0973,-0.0578,-0.0211,0.0124,0.0579,0.0724,0.0733,0.0778,0.0817,0.0823,0.0568,0.0615,0.0776,0.0776,0.0776,0.0776,0.0776,0.0775,-0.0759,-0.0822,-0.0843,-0.0922,-0.0958,-0.1029,-0.1071,-0.1096,-0.105,-0.0873,-0.0638,-0.0464,-0.0012,0.0669,0.1038,0.1052,0.1125,0.1125,0.1138,0.097,0.094,0.0912,0.0966,0.1198,0.1199,0.1404,0.1406,0.1408]}],[{"header":{"parameterUnit":"m.s-1","parameterCategory":2,"la1":30.2991,"la2":30.254,"lo1":-89.0895,"lo2":-89.0444,"dy":0.0017,"dx":0.0017,"nx":28,"ny":28,"refTime":"2023-09-27T03:00:00:Z","depth":"2","parameterNumber":2,"parameterNumberName":"U-component_of_CURRENTS"},"data":[0,0,0,0,0,0,0,0,0,0,0,0,0,0,0,0,0,0,0,0,0,0,0,0,0,0,0,0,0,0,0,0,0,0,0,0,0,0,0,0,0,0,0,0,0,0,0,0,0,0,0,0,0,0,0,0,0,0,-0.1693,-0.1693,0,-0.1632,-0.1631,-0.163,-0.1711,-0.1714,-0.1717,-0.172,-0.1767,-0.1765,-0.1764,0,0,0,0,0,0,0,0,0,0,0,0,0,-0.1727,-0.1727,-0.1694,-0.1693,-0.1692,-0.1632,-0.1631,-0.163,-0.1711,-0.1714,-0.1718,-0.1721,-0.1767,-0.1766,-0.1764,0,0,0,0,0,0,0,0,0,0,0,0,0,-0.1694,-0.1727,-0.1694,-0.1724,-0.1726,-0.1632,-0.1631,-0.163,-0.171,-0.1714,-0.1719,-0.1723,-0.1768,-0.1766,-0.1764,-0.1665,0,0,-0.1757,-0.1756,0,0,0,0,0,0,0,0,-0.1696,-0.1693,-0.1721,-0.1722,-0.1724,-0.1683,-0.166,-0.1647,-0.1709,-0.1717,-0.172,-0.1725,-0.1745,-0.1745,-0.1723,-0.1667,-0.1669,-0.1757,-0.1756,-0.1755,-0.1754,0,0,0,0,0,0,0,-0.1699,-0.1695,-0.167,-0.1719,-0.1721,-0.1688,-0.169,-0.1657,-0.171,-0.1717,-0.1722,-0.1713,-0.1748,-0.1725,-0.1725,-0.1669,-0.1757,-0.1755,-0.1754,-0.1753,-0.1613,-0.1611,0,0,0,0,0,0,-0.1708,-0.1698,-0.1672,-0.1668,-0.172,-0.1684,-0.1686,-0.1692,-0.1709,-0.1714,-0.1709,-0.1717,-0.1727,-0.1728,-0.1728,-0.1709,-0.1755,-0.1753,-0.1752,-0.1615,-0.1612,-0.161,0,0,0,0,0,0,-0.1709,-0.1707,-0.1674,-0.168,-0.1674,-0.1681,-0.1686,-0.1689,-0.169,-0.1701,-0.171,-0.171,-0.173,-0.1731,-0.1687,-0.1709,-0.1752,-0.175,-0.1618,-0.1614,-0.1611,-0.161,0,0,0,0,0,0,-0.171,-0.1708,-0.1711,-0.1681,-0.1674,-0.1611,-0.1682,-0.1685,-0.1675,-0.1686,-0.1704,-0.1712,-0.1733,-0.169,-0.1685,-0.1707,-0.1748,-0.1621,-0.1617,-0.1612,-0.1613,-0.1607,-0.1601,0,0,0,0,0,-0.1712,-0.1682,-0.1712,-0.1708,-0.1681,-0.1608,-0.1599,-0.1619,-0.1672,-0.1642,-0.1656,-0.1712,-0.166,-0.1684,-0.168,-0.1702,-0.1624,-0.1618,-0.1613,-0.1616,-0.1608,-0.1601,0,0,0,0,0,0,-0.1682,-0.1687,-0.1719,-0.1692,-0.1657,-0.1622,-0.1599,-0.1612,-0.1595,-0.1631,-0.1655,-0.1658,-0.1635,-0.1637,-0.1664,-0.1641,-0.166,-0.1653,-0.1664,-0.1657,-0.1651,-0.1734,-0.1746,0,0,0,0,0,-0.168,-0.1678,-0.1658,-0.1635,-0.1625,-0.1616,-0.1593,-0.1609,-0.159,-0.1591,-0.1601,-0.1611,-0.1596,-0.1605,-0.1583,-0.1551,-0.1604,-0.1564,-0.1558,-0.1554,-0.1612,-0.1618,-0.1621,-0.1592,-0.1592,-0.1592,0,0,-0.1654,-0.1663,-0.1657,-0.163,-0.1619,-0.1587,-0.1614,-0.1583,-0.1583,-0.1594,-0.1593,-0.1577,-0.1573,-0.155,-0.1544,-0.1569,-0.1593,-0.1547,-0.1544,-0.1606,-0.1613,-0.1617,-0.162,-0.1588,-0.1589,-0.1589,0,0,-0.1602,-0.1621,-0.1608,-0.1584,-0.1572,-0.156,-0.1553,-0.1529,-0.1553,-0.1517,-0.1542,-0.1546,-0.15,-0.1531,-0.1535,-0.1475,-0.1545,-0.145,-0.1513,-0.1515,-0.152,-0.1525,-0.1629,-0.1643,-0.1466,-0.1466,-0.1466,0,-0.1595,-0.1579,-0.1578,-0.1561,-0.1554,-0.1553,-0.1533,-0.1525,-0.1494,-0.1524,-0.1526,-0.1512,-0.1516,-0.153,-0.1525,-0.1478,-0.1504,-0.1548,-0.1515,-0.1521,-0.1526,-0.1631,-0.1647,-0.1466,-0.1466,-0.1466,-0.1466,0,-0.1527,-0.153,-0.1509,-0.1517,-0.1492,-0.1464,-0.1469,-0.1466,-0.1499,-0.1515,-0.1533,-0.1518,-0.1538,-0.1519,-0.1516,-0.1546,-0.1563,-0.1495,-0.1552,-0.153,-0.1641,-0.1658,-0.1465,-0.1465,-0.1465,-0.1465,0,0,-0.1509,-0.148,-0.1487,-0.1516,-0.1485,-0.1477,-0.1467,-0.1481,-0.1534,-0.1517,-0.1577,-0.1565,-0.1596,-0.1602,-0.1589,-0.1611,-0.1681,-0.1579,-0.1579,-0.1722,-0.1753,-0.1628,-0.1636,-0.1578,-0.158,-0.1582,-0.1831,0,-0.1483,-0.1474,-0.1452,-0.1456,-0.146,-0.1466,-0.1474,-0.1499,-0.152,-0.1564,-0.1601,-0.1626,-0.1612,-0.163,-0.1649,-0.1659,-0.1717,-0.1627,-0.1723,-0.1731,-0.165,-0.1646,-0.1474,-0.1665,-0.1848,-0.1851,-0.1853,0,-0.1452,-0.146,-0.1458,-0.1508,-0.1516,-0.1516,-0.1585,-0.1583,-0.1629,-0.1652,-0.1685,-0.1697,-0.1767,-0.1718,-0.1815,-0.1744,-0.1779,-0.1791,-0.1798,-0.1706,-0.1633,-0.1704,-0.1689,-0.1881,-0.1879,-0.1877,-0.1875,0,-0.1491,-0.1492,-0.1514,-0.1515,-0.1532,-0.1572,-0.1594,-0.1634,-0.1649,-0.1708,-0.1716,-0.1795,-0.1851,-0.1866,-0.1905,-0.1861,-0.1995,-0.1931,-0.1881,-0.1878,-0.1772,-0.1752,-0.2013,-0.2012,-0.2012,-0.2011,-0.201,0,-0.1495,-0.1531,-0.1553,-0.1565,-0.163,-0.1642,-0.1703,-0.1726,-0.1745,-0.1764,-0.1774,-0.181,-0.1877,-0.1936,-0.1951,-0.198,-0.2042,-0.1937,-0.1917,-0.1763,-0.174,-0.1942,-0.193,-0.202,-0.2018,-0.2016,-0.2015,0,-0.1536,-0.1538,-0.1581,-0.1624,-0.1639,-0.1704,-0.1726,-0.1734,-0.177,-0.1778,-0.1788,-0.1871,-0.1958,-0.2,-0.2098,-0.2055,-0.2074,-0.2064,-0.193,-0.1885,-0.1976,-0.1961,-0.2086,-0.2083,-0.2081,-0.2079,-0.2077,0,-0.1553,-0.1566,-0.1616,-0.1626,-0.1647,-0.1711,-0.1696,-0.1733,-0.1725,-0.1802,-0.1796,-0.1915,-0.1958,-0.2064,-0.2031,-0.2059,-0.2085,-0.19,-0.1761,-0.2008,-0.1978,-0.1966,-0.1954,-0.1674,-0.1669,-0.1665,-0.1662,0,-0.1567,-0.1591,-0.1616,-0.1612,-0.1621,-0.1629,-0.1647,-0.1649,-0.1678,-0.1711,-0.1804,-0.1861,-0.1948,-0.1909,-0.1898,-0.1869,-0.1864,-0.1817,-0.2111,-0.1626,-0.1622,-0.159,-0.1593,-0.1627,-0.1631,-0.1633,-0.1635,-0.1637,-0.157,-0.1602,-0.1589,-0.1589,-0.1575,-0.1538,-0.1522,-0.1547,-0.1569,-0.1596,-0.174,-0.1752,-0.1788,-0.1688,-0.1627,-0.1563,-0.1693,-0.1597,-0.1609,-0.1626,-0.1476,-0.146,-0.1419,-0.1421,-0.1423,-0.1425,-0.1426,0,-0.1526,-0.1539,-0.1536,-0.1519,-0.1435,-0.1458,-0.1437,-0.1402,-0.142,-0.1476,-0.1553,-0.1436,-0.1393,-0.1406,-0.1253,-0.122,-0.1214,-0.1163,-0.115,-0.1185,-0.1216,-0.1045,-0.0875,-0.0873,-0.0872,-0.087,0,0,-0.1503,-0.1477,-0.1467,-0.1343,-0.1315,-0.1201,-0.1173,-0.1171,-0.1192,-0.121,-0.1212,-0.1322,-0.1349,-0.1107,-0.1055,-0.0937,-0.105,-0.0889,-0.1331,-0.135,-0.1379,-0.1464,-0.1237,0,0,0,0,0]},{"header":{"parameterUnit":"m.s-1","parameterCategory":2,"la1":30.2991,"la2":30.254,"lo1":-89.0895,"lo2":-89.0444,"dy":0.0017,"dx":0.0017,"nx":28,"ny":28,"refTime":"2023-09-27T03:00:00:Z","depth":"2","parameterNumber":3,"parameterNumberName":"V-component_of_CURRENTS"},"data":[0,0,0,0,0,0,0,0,0,0,0,0,0,0,0,0,0,0,0,0,0,0,0,0,0,0,0,0,0,0,0,0,0,0,0,0,0,0,0,0,0,0,0,0,0,0,0,0,0,0,0,0,0,0,0,0,0,0,0.0161,0.0161,0,0.0203,0.0203,0.0204,0.0236,0.0237,0.0237,0.0237,0.0316,0.0318,0.032,0,0,0,0,0,0,0,0,0,0,0,0,0,0.0096,0.0097,0.0161,0.0161,0.0162,0.0203,0.0203,0.0204,0.0236,0.0237,0.0237,0.0238,0.0316,0.0318,0.032,0,0,0,0,0,0,0,0,0,0,0,0,0,0.013,0.0097,0.016,0.0183,0.0185,0.0203,0.0203,0.0204,0.0236,0.0237,0.0237,0.0238,0.0315,0.0318,0.032,0.0327,0,0,0.0328,0.033,0,0,0,0,0,0,0,0,0.0128,0.0132,0.0179,0.0181,0.0184,0.0215,0.0209,0.0247,0.0236,0.0217,0.0237,0.0238,0.0286,0.0291,0.0297,0.0331,0.0334,0.0329,0.033,0.0332,0.0332,0,0,0,0,0,0,0,0.0125,0.013,0.0177,0.018,0.0183,0.0187,0.0192,0.0217,0.0249,0.0219,0.0221,0.0226,0.0287,0.0294,0.0299,0.0335,0.0329,0.0331,0.0333,0.0334,0.0382,0.0382,0,0,0,0,0,0,0.0121,0.0128,0.0176,0.0178,0.0157,0.0188,0.0194,0.0204,0.0248,0.0254,0.0225,0.0227,0.0289,0.0296,0.0302,0.0316,0.0331,0.0334,0.0336,0.0382,0.0382,0.0382,0,0,0,0,0,0,0.0119,0.0125,0.0174,0.0154,0.0161,0.0188,0.02,0.0205,0.0215,0.0252,0.026,0.023,0.029,0.0298,0.0316,0.0319,0.0335,0.0338,0.0383,0.0382,0.0382,0.0342,0,0,0,0,0,0,0.0117,0.0124,0.0128,0.0154,0.0162,0.0162,0.02,0.0206,0.0217,0.022,0.0259,0.0267,0.0291,0.0312,0.0319,0.0323,0.034,0.0383,0.0383,0.0382,0.0344,0.0341,0.0338,0,0,0,0,0,0.0115,0.0115,0.0128,0.0134,0.0167,0.016,0.0163,0.0185,0.0217,0.0201,0.0239,0.0266,0.0313,0.0314,0.0322,0.0327,0.0384,0.0383,0.0382,0.0346,0.0341,0.0338,0,0,0,0,0,0,0.0085,0.0119,0.0134,0.0144,0.0142,0.0166,0.0164,0.0184,0.0203,0.0221,0.026,0.0269,0.0288,0.0309,0.0308,0.0338,0.0354,0.0355,0.0323,0.0319,0.0316,0.0298,0.0342,0,0,0,0,0,0.0082,0.0093,0.0112,0.0116,0.0118,0.0143,0.0148,0.0164,0.0186,0.0196,0.0228,0.0265,0.0291,0.0305,0.0329,0.0343,0.0347,0.0352,0.0348,0.0345,0.0336,0.0373,0.0373,0.0379,0.0379,0.0379,0,0,0.007,0.0091,0.0096,0.011,0.0121,0.0116,0.0147,0.0151,0.0162,0.0203,0.023,0.0256,0.0292,0.0308,0.0319,0.0326,0.0334,0.0344,0.0342,0.0333,0.0373,0.0372,0.0372,0.0379,0.0379,0.0379,0,0,0.0042,0.0071,0.0066,0.0063,0.0077,0.0097,0.0096,0.0121,0.0145,0.0162,0.0204,0.0223,0.0263,0.0286,0.0305,0.0296,0.0317,0.031,0.028,0.0317,0.0317,0.0317,0.0268,0.0265,0.0308,0.0308,0.0307,0,0.0028,0.0029,0.0056,0.0043,0.005,0.0087,0.0078,0.01,0.013,0.0151,0.0163,0.0226,0.0251,0.028,0.0271,0.029,0.0289,0.0293,0.0313,0.0314,0.0315,0.0265,0.0262,0.0306,0.0306,0.0306,0.0306,0,-0.0016,-0.0011,-0.0018,-0.0007,-0.0,-0.0006,0.0032,0.0054,0.0097,0.0118,0.0155,0.0187,0.0218,0.0233,0.0247,0.0268,0.0253,0.0306,0.0322,0.0311,0.0259,0.0256,0.0303,0.0303,0.0304,0.0305,0,0,-0.0053,-0.0046,-0.0049,-0.0049,-0.0022,-0.0022,0.0012,0.0041,0.0063,0.0096,0.0126,0.0154,0.0171,0.0191,0.0221,0.0244,0.0226,0.0268,0.0271,0.0215,0.0246,0.0337,0.0341,0.0296,0.0297,0.0297,0.0187,0,-0.0095,-0.0125,-0.0096,-0.011,-0.012,-0.0063,-0.0046,-0.0008,0.0039,0.0073,0.0123,0.0146,0.0159,0.017,0.0197,0.024,0.0225,0.0246,0.0268,0.0266,0.0349,0.0346,0.0333,0.0247,0.0184,0.0184,0.0183,0,-0.0152,-0.0157,-0.0185,-0.0156,-0.0152,-0.0154,-0.0097,-0.0077,-0.0014,0.0025,0.0066,0.0106,0.0133,0.016,0.0188,0.0206,0.0202,0.0223,0.0221,0.0324,0.0356,0.026,0.0244,0.0178,0.0179,0.0179,0.018,0,-0.0211,-0.021,-0.0229,-0.0229,-0.0202,-0.0188,-0.0164,-0.0109,-0.0087,-0.0014,0.001,0.0064,0.0077,0.0126,0.016,0.0174,0.0196,0.0228,0.0281,0.0282,0.0285,0.029,0.0224,0.0224,0.0224,0.0224,0.0225,0,-0.0271,-0.0283,-0.0267,-0.0288,-0.0299,-0.0254,-0.0251,-0.0205,-0.0152,-0.0142,-0.0041,-0.0036,0.0076,0.0111,0.0147,0.0208,0.0178,0.0263,0.0283,0.0266,0.0271,0.0241,0.0244,0.022,0.0221,0.0222,0.0223,0,-0.0345,-0.0337,-0.0362,-0.0345,-0.034,-0.0357,-0.0321,-0.0312,-0.0253,-0.0226,-0.0208,-0.0128,-0.0071,0.0034,0.0094,0.0176,0.024,0.0252,0.0191,0.021,0.028,0.0282,0.0293,0.0296,0.0298,0.03,0.0302,0,-0.0388,-0.0418,-0.0423,-0.0439,-0.0437,-0.0443,-0.044,-0.0379,-0.0369,-0.0305,-0.0305,-0.0235,-0.0184,-0.0036,0.0126,0.0237,0.0227,0.0296,0.0355,0.028,0.0297,0.0296,0.0295,0.0282,0.0284,0.0285,0.0286,0,-0.047,-0.0478,-0.0497,-0.0528,-0.0538,-0.0542,-0.0537,-0.0541,-0.0471,-0.0452,-0.0446,-0.04,-0.0221,-0.0061,0.0162,0.0226,0.0309,0.0327,0.027,0.0315,0.0277,0.0292,0.029,0.0296,0.0295,0.0294,0.0294,0.0293,-0.0529,-0.0567,-0.0589,-0.0613,-0.0626,-0.0634,-0.0645,-0.0636,-0.064,-0.0586,-0.0553,-0.0442,-0.025,0.008,0.0209,0.0368,0.0364,0.0414,0.0406,0.0398,0.0466,0.0441,0.0494,0.0494,0.0494,0.0494,0.0495,0,-0.0599,-0.0627,-0.0659,-0.0689,-0.0706,-0.069,-0.07,-0.0702,-0.0726,-0.0637,-0.0601,-0.0374,-0.0149,0.0049,0.0312,0.0471,0.0431,0.0491,0.0406,0.0397,0.0389,0.0453,0.0478,0.0478,0.0479,0.0479,0,0,-0.0641,-0.069,-0.0699,-0.0746,-0.0762,-0.079,-0.0798,-0.08,-0.0748,-0.0687,-0.0574,-0.0381,-0.0124,0.0063,0.0242,0.0365,0.0335,0.0373,0.0376,0.0246,0.0236,0.0343,0.0433,0,0,0,0,0]}],[{"header":{"parameterUnit":"m.s-1","parameterCategory":2,"la1":30.2991,"la2":30.254,"lo1":-89.0895,"lo2":-89.0444,"dy":0.0017,"dx":0.0017,"nx":28,"ny":28,"refTime":"2023-09-27T03:00:00:Z","depth":"4","parameterNumber":2,"parameterNumberName":"U-component_of_CURRENTS"},"data":[0,0,0,0,0,0,0,0,0,0,0,0,0,0,0,0,0,0,0,0,0,0,0,0,0,0,0,0,0,0,0,0,0,0,0,0,0,0,0,0,0,0,0,0,0,0,0,0,0,0,0,0,0,0,0,0,0,0,-0.0623,-0.0624,0,-0.0699,-0.07,-0.07,-0.0721,-0.0721,-0.0721,-0.0721,-0.0789,-0.0791,-0.0793,0,0,0,0,0,0,0,0,0,0,0,0,0,-0.0535,-0.0536,-0.0623,-0.0624,-0.0625,-0.0699,-0.07,-0.07,-0.0721,-0.0721,-0.0721,-0.0721,-0.0788,-0.0791,-0.0793,0,0,0,0,0,0,0,0,0,0,0,0,0,-0.0586,-0.0536,-0.0623,-0.0646,-0.0649,-0.0699,-0.07,-0.0701,-0.0722,-0.0721,-0.0721,-0.072,-0.0788,-0.0791,-0.0794,-0.082,0,0,-0.0803,-0.0804,0,0,0,0,0,0,0,0,-0.0583,-0.0589,-0.0641,-0.0644,-0.0648,-0.0702,-0.0694,-0.0741,-0.0722,-0.0692,-0.0721,-0.072,-0.0761,-0.0766,-0.0778,-0.0823,-0.0826,-0.0803,-0.0805,-0.0806,-0.0807,0,0,0,0,0,0,0,-0.0579,-0.0586,-0.0651,-0.0643,-0.0647,-0.0666,-0.0672,-0.0703,-0.0726,-0.0694,-0.0697,-0.0709,-0.0762,-0.0775,-0.078,-0.0827,-0.0803,-0.0806,-0.0808,-0.0809,-0.0911,-0.0912,0,0,0,0,0,0,-0.0573,-0.0582,-0.0648,-0.0653,-0.0616,-0.0668,-0.0675,-0.0683,-0.0726,-0.0732,-0.0709,-0.0709,-0.077,-0.0777,-0.0783,-0.0854,-0.0806,-0.0809,-0.0811,-0.0911,-0.0912,-0.0913,0,0,0,0,0,0,-0.057,-0.0578,-0.0645,-0.0621,-0.0632,-0.067,-0.0679,-0.0685,-0.0714,-0.0737,-0.0743,-0.0733,-0.077,-0.0778,-0.0817,-0.0855,-0.0811,-0.0813,-0.0909,-0.0911,-0.0912,-0.0972,0,0,0,0,0,0,-0.0567,-0.0576,-0.0589,-0.0621,-0.0633,-0.0681,-0.068,-0.0687,-0.0721,-0.0723,-0.076,-0.0765,-0.0771,-0.0813,-0.082,-0.0859,-0.0816,-0.0908,-0.091,-0.0912,-0.0969,-0.0976,-0.0981,0,0,0,0,0,-0.0564,-0.058,-0.0589,-0.0598,-0.0646,-0.0682,-0.069,-0.0715,-0.0723,-0.0738,-0.0761,-0.0764,-0.0828,-0.0816,-0.0825,-0.0865,-0.0908,-0.091,-0.0912,-0.0967,-0.0974,-0.0981,0,0,0,0,0,0,-0.0552,-0.0585,-0.0595,-0.0621,-0.0653,-0.0686,-0.0708,-0.0727,-0.0758,-0.0762,-0.078,-0.0787,-0.0828,-0.0837,-0.0823,-0.0896,-0.0868,-0.0871,-0.0906,-0.0914,-0.092,-0.0901,-0.0818,0,0,0,0,0,-0.0554,-0.0576,-0.0608,-0.0633,-0.0647,-0.0681,-0.0704,-0.072,-0.075,-0.0764,-0.0791,-0.0817,-0.0842,-0.087,-0.0883,-0.0938,-0.0917,-0.0966,-0.0972,-0.0977,-0.0966,-0.0941,-0.0943,-0.0919,-0.0919,-0.0919,0,0,-0.056,-0.0581,-0.0595,-0.0633,-0.0658,-0.0688,-0.0694,-0.073,-0.0756,-0.0767,-0.0815,-0.0834,-0.0855,-0.0902,-0.0923,-0.0921,-0.0982,-0.0979,-0.0984,-0.097,-0.0943,-0.0945,-0.0947,-0.092,-0.092,-0.092,0,0,-0.0575,-0.0597,-0.0615,-0.0641,-0.0681,-0.0704,-0.0718,-0.076,-0.0777,-0.0826,-0.0833,-0.0864,-0.0925,-0.0938,-0.0954,-0.1,-0.1,-0.1028,-0.1065,-0.1042,-0.1044,-0.1044,-0.1059,-0.106,-0.1048,-0.1048,-0.1048,0,-0.058,-0.0607,-0.0629,-0.0653,-0.0677,-0.0713,-0.0738,-0.0767,-0.0819,-0.0827,-0.0843,-0.0903,-0.0931,-0.0969,-0.1004,-0.1013,-0.1017,-0.1042,-0.1049,-0.1049,-0.1049,-0.1063,-0.1063,-0.1051,-0.1051,-0.105,-0.105,0,-0.0604,-0.0632,-0.0647,-0.0687,-0.0714,-0.0747,-0.0781,-0.0811,-0.0844,-0.0865,-0.0902,-0.0936,-0.0968,-0.1,-0.1033,-0.1062,-0.1074,-0.1046,-0.103,-0.1055,-0.1069,-0.1068,-0.1056,-0.1054,-0.1054,-0.1053,0,0,-0.0599,-0.0652,-0.066,-0.0676,-0.0734,-0.0753,-0.0797,-0.0831,-0.0855,-0.0898,-0.0927,-0.0984,-0.0999,-0.1017,-0.1055,-0.1069,-0.1105,-0.1088,-0.1085,-0.1101,-0.1096,-0.1083,-0.1081,-0.109,-0.109,-0.1089,-0.112,0,-0.0613,-0.0654,-0.0682,-0.0726,-0.0746,-0.0783,-0.0816,-0.0848,-0.089,-0.093,-0.0947,-0.0989,-0.1007,-0.105,-0.106,-0.1089,-0.1102,-0.1101,-0.1069,-0.1069,-0.1051,-0.1078,-0.1087,-0.1119,-0.1119,-0.1119,-0.1119,0,-0.0622,-0.0649,-0.0689,-0.0728,-0.0739,-0.0774,-0.0821,-0.0851,-0.0901,-0.0935,-0.0967,-0.0996,-0.104,-0.1046,-0.1067,-0.1076,-0.1094,-0.1105,-0.1105,-0.1062,-0.1053,-0.1079,-0.1118,-0.1118,-0.1118,-0.1118,-0.1118,0,-0.0592,-0.0648,-0.0677,-0.0696,-0.0752,-0.0771,-0.0799,-0.0848,-0.0876,-0.0941,-0.0985,-0.1007,-0.1049,-0.1042,-0.1097,-0.1087,-0.1121,-0.1086,-0.1078,-0.1079,-0.1054,-0.1052,-0.1072,-0.1072,-0.1072,-0.1072,-0.1072,0,-0.0585,-0.0608,-0.0667,-0.0682,-0.0706,-0.0747,-0.0787,-0.0818,-0.0886,-0.0929,-0.0981,-0.1035,-0.1054,-0.109,-0.1101,-0.1107,-0.1107,-0.1084,-0.1076,-0.1086,-0.1087,-0.1056,-0.1054,-0.1073,-0.1073,-0.1073,-0.1073,0,-0.0546,-0.0589,-0.0617,-0.0676,-0.0691,-0.0703,-0.0775,-0.0814,-0.0876,-0.0944,-0.0971,-0.1061,-0.1111,-0.1134,-0.1155,-0.1118,-0.1116,-0.1117,-0.1171,-0.1166,-0.1088,-0.1089,-0.1077,-0.1077,-0.1076,-0.1076,-0.1076,0,-0.0529,-0.0546,-0.06,-0.0617,-0.0649,-0.0687,-0.0725,-0.0796,-0.0846,-0.0961,-0.0993,-0.1082,-0.1138,-0.115,-0.1172,-0.1165,-0.1154,-0.1136,-0.1066,-0.109,-0.1085,-0.1086,-0.1087,-0.1075,-0.1075,-0.1075,-0.1075,0,-0.0497,-0.0524,-0.0543,-0.0586,-0.0627,-0.0684,-0.0742,-0.0776,-0.0872,-0.0924,-0.1007,-0.1049,-0.1119,-0.1139,-0.1163,-0.115,-0.1127,-0.1131,-0.113,-0.1064,-0.1088,-0.1083,-0.1084,-0.1074,-0.1074,-0.1074,-0.1074,0,-0.0466,-0.0471,-0.0511,-0.0549,-0.0617,-0.0699,-0.0719,-0.0793,-0.0845,-0.095,-0.0979,-0.1073,-0.1128,-0.1135,-0.1154,-0.1148,-0.1108,-0.1042,-0.1045,-0.1047,-0.1021,-0.1047,-0.1013,0,0,0,0,0,-0.0435,-0.0448,-0.0481,-0.0543,-0.0632,-0.0677,-0.0755,-0.0785,-0.0862,-0.0898,-0.0935,-0.0999,-0.1047,-0.1089,-0.1074,-0.1137,-0.1115,-0.1114,-0.1041,-0.1067,-0.1069,-0.1042,0,0,0,0,0,0,-0.0409,-0.0428,-0.0463,-0.057,-0.0621,-0.0722,-0.0778,-0.0817,-0.0832,-0.0889,-0.0918,-0.0941,-0.0998,-0.1051,-0.1059,-0.1067,-0.1001,-0.1149,-0.1147,-0.1066,-0.1068,-0.1069,-0.1042,0,0,0,0,0]},{"header":{"parameterUnit":"m.s-1","parameterCategory":2,"la1":30.2991,"la2":30.254,"lo1":-89.0895,"lo2":-89.0444,"dy":0.0017,"dx":0.0017,"nx":28,"ny":28,"refTime":"2023-09-27T03:00:00:Z","depth":"4","parameterNumber":3,"parameterNumberName":"V-component_of_CURRENTS"},"data":[0,0,0,0,0,0,0,0,0,0,0,0,0,0,0,0,0,0,0,0,0,0,0,0,0,0,0,0,0,0,0,0,0,0,0,0,0,0,0,0,0,0,0,0,0,0,0,0,0,0,0,0,0,0,0,0,0,0,-0.0307,-0.0307,0,-0.0254,-0.0253,-0.0252,-0.0241,-0.0241,-0.0242,-0.0242,-0.0202,-0.0201,-0.0199,0,0,0,0,0,0,0,0,0,0,0,0,0,-0.0341,-0.0341,-0.0307,-0.0307,-0.0306,-0.0254,-0.0253,-0.0252,-0.024,-0.0241,-0.0242,-0.0243,-0.0203,-0.0201,-0.0199,0,0,0,0,0,0,0,0,0,0,0,0,0,-0.0309,-0.034,-0.0307,-0.0296,-0.0294,-0.0254,-0.0253,-0.0252,-0.024,-0.0241,-0.0242,-0.0243,-0.0203,-0.0201,-0.0199,-0.0166,0,0,-0.0191,-0.019,0,0,0,0,0,0,0,0,-0.0311,-0.0307,-0.0298,-0.0297,-0.0295,-0.0257,-0.025,-0.0225,-0.024,-0.0259,-0.0242,-0.0243,-0.0222,-0.0218,-0.0203,-0.0164,-0.0163,-0.0191,-0.019,-0.0189,-0.0188,0,0,0,0,0,0,0,-0.0313,-0.0309,-0.0284,-0.0297,-0.0296,-0.0273,-0.027,-0.0245,-0.0235,-0.0257,-0.0257,-0.0254,-0.0221,-0.0206,-0.0202,-0.0162,-0.0191,-0.0189,-0.0187,-0.0186,-0.0111,-0.0111,0,0,0,0,0,0,-0.0326,-0.0312,-0.0286,-0.0283,-0.0307,-0.0272,-0.0269,-0.0266,-0.0235,-0.0231,-0.0253,-0.0253,-0.0209,-0.0205,-0.0201,-0.0183,-0.0189,-0.0186,-0.0185,-0.0112,-0.0111,-0.0111,0,0,0,0,0,0,-0.0327,-0.0324,-0.0288,-0.0298,-0.0292,-0.0272,-0.0269,-0.0265,-0.0253,-0.0232,-0.0229,-0.0247,-0.021,-0.0204,-0.0181,-0.0181,-0.0185,-0.0183,-0.0113,-0.0112,-0.0111,-0.0133,0,0,0,0,0,0,-0.0328,-0.0325,-0.0328,-0.0298,-0.0292,-0.0261,-0.0268,-0.0263,-0.0251,-0.0251,-0.0225,-0.0222,-0.021,-0.0185,-0.0179,-0.0177,-0.0181,-0.0113,-0.0112,-0.0111,-0.0133,-0.0133,-0.0133,0,0,0,0,0,-0.0329,-0.0318,-0.0329,-0.0326,-0.0297,-0.0261,-0.0254,-0.0241,-0.025,-0.0236,-0.0226,-0.0223,-0.0174,-0.0182,-0.0175,-0.0173,-0.0114,-0.0113,-0.0111,-0.0133,-0.0133,-0.0133,0,0,0,0,0,0,-0.0327,-0.0316,-0.0326,-0.0313,-0.0293,-0.026,-0.0245,-0.0242,-0.0221,-0.0224,-0.0212,-0.0207,-0.0189,-0.0172,-0.0181,-0.0148,-0.0145,-0.0142,-0.0163,-0.0163,-0.0163,-0.0163,-0.0179,0,0,0,0,0,-0.0333,-0.0328,-0.0311,-0.0301,-0.0292,-0.0273,-0.0259,-0.025,-0.0228,-0.022,-0.0208,-0.0192,-0.0175,-0.0164,-0.0145,-0.012,-0.0087,-0.0114,-0.0114,-0.0114,-0.0109,-0.0053,-0.0048,-0.0107,-0.0107,-0.0107,0,0,-0.0328,-0.0323,-0.032,-0.0301,-0.0286,-0.0273,-0.0265,-0.0239,-0.0236,-0.0218,-0.0208,-0.0191,-0.0169,-0.0149,-0.0139,-0.0136,-0.008,-0.0113,-0.0114,-0.0107,-0.0051,-0.0045,-0.004,-0.0106,-0.0106,-0.0106,0,0,-0.0311,-0.0314,-0.0305,-0.0293,-0.0275,-0.0265,-0.0261,-0.0234,-0.0228,-0.021,-0.0205,-0.0186,-0.0158,-0.0143,-0.0133,-0.0117,-0.0085,-0.0113,-0.0109,-0.0056,-0.005,-0.0045,0.0004,0.0013,-0.0109,-0.011,-0.011,0,-0.0311,-0.0307,-0.0293,-0.0283,-0.0282,-0.0267,-0.026,-0.0244,-0.0217,-0.0213,-0.0211,-0.0169,-0.0156,-0.0131,-0.0129,-0.0119,-0.0079,-0.0115,-0.0056,-0.005,-0.0045,0.0004,0.0015,-0.011,-0.011,-0.011,-0.011,0,-0.0288,-0.0294,-0.0282,-0.0281,-0.0271,-0.0258,-0.0247,-0.0237,-0.0236,-0.0224,-0.0199,-0.0169,-0.0144,-0.0139,-0.013,-0.0088,-0.007,-0.0067,-0.0058,-0.004,0.0011,0.0022,-0.0112,-0.0111,-0.0111,-0.0111,0,0,-0.0274,-0.0271,-0.0274,-0.0286,-0.0276,-0.0265,-0.0261,-0.0251,-0.0245,-0.0219,-0.0198,-0.0176,-0.0154,-0.0139,-0.0119,-0.0074,-0.0008,-0.0052,-0.0049,-0.0008,0.0118,0.009,0.01,0.0011,0.0013,0.0015,0.0138,0,-0.027,-0.0273,-0.0269,-0.0278,-0.0281,-0.0277,-0.0276,-0.0265,-0.0246,-0.0216,-0.0183,-0.0151,-0.0155,-0.013,-0.009,-0.0025,0.0023,-0.0041,0.0099,0.0103,0.0072,0.0113,0.0021,0.0146,0.0149,0.0151,0.0153,0,-0.0255,-0.0268,-0.0282,-0.0298,-0.0298,-0.03,-0.0301,-0.0291,-0.025,-0.0228,-0.0187,-0.0148,-0.0087,-0.0082,0.0031,-0.0005,0.0055,0.0105,0.0111,0.0101,0.0097,0.0126,0.0174,0.0173,0.0171,0.017,0.0168,0,-0.0267,-0.0276,-0.0299,-0.0304,-0.0314,-0.0322,-0.0323,-0.03,-0.028,-0.022,-0.0184,-0.0118,-0.0066,0.0017,0.0098,0.0082,0.0237,0.0226,0.0258,0.0257,0.0254,0.0247,0.0319,0.0319,0.0319,0.0319,0.0318,0,-0.0269,-0.0287,-0.031,-0.0325,-0.0346,-0.0341,-0.0338,-0.0326,-0.0276,-0.0244,-0.0187,-0.0134,-0.0034,0.0058,0.0127,0.0227,0.0259,0.0273,0.0292,0.0241,0.0232,0.0262,0.0254,0.0323,0.0322,0.0321,0.032,0,-0.0276,-0.029,-0.0319,-0.0347,-0.0352,-0.0367,-0.035,-0.0334,-0.0294,-0.0239,-0.0212,-0.0119,-0.0016,0.0081,0.0226,0.026,0.0362,0.0389,0.0336,0.0347,0.0342,0.0331,0.0447,0.0447,0.0447,0.0447,0.0448,0,-0.028,-0.0299,-0.0342,-0.0355,-0.037,-0.0381,-0.0378,-0.0347,-0.0319,-0.0235,-0.0203,-0.0091,-0.0031,0.0155,0.0244,0.0383,0.0385,0.0446,0.0385,0.0351,0.0358,0.0347,0.0337,0.0448,0.0448,0.0448,0.0448,0,-0.0296,-0.0316,-0.0344,-0.0376,-0.0387,-0.0392,-0.0386,-0.0364,-0.0318,-0.0271,-0.0181,-0.0084,0.0029,0.0148,0.0257,0.035,0.0411,0.0447,0.0446,0.039,0.0353,0.0357,0.0347,0.0448,0.0448,0.0448,0.0448,0,-0.0306,-0.0331,-0.0366,-0.0394,-0.0411,-0.0415,-0.0402,-0.0362,-0.0327,-0.0237,-0.0206,-0.0084,-0.0002,0.0133,0.0235,0.0321,0.0329,0.0349,0.0354,0.0354,0.0272,0.0208,0.0291,0,0,0,0,0,-0.0313,-0.0341,-0.0374,-0.0411,-0.043,-0.0443,-0.0413,-0.0389,-0.034,-0.0281,-0.0243,-0.014,0.0015,0.0092,0.0171,0.0216,0.0331,0.0311,0.0353,0.045,0.045,0.0364,0,0,0,0,0,0,-0.0315,-0.0345,-0.0379,-0.0426,-0.0457,-0.0471,-0.0461,-0.0421,-0.0378,-0.0315,-0.0229,-0.015,-0.0,-0.0053,0.0155,0.0186,0.022,0.0395,0.0397,0.0451,0.045,0.045,0.0361,0,0,0,0,0]}]]